Weather History for Rotterdam, Netherlands

Change the Weather History Date:

Wednesday, June 19, 2013

  Actual Average Record
Temperature  
Mean Temperature 69 °F -  
Max Temperature 76 °F 68 °F 89 °F (2000)
Min Temperature 60 °F 53 °F 42 °F (2001)
Cooling Degree Days 4    
Growing Degree Days 19 (Base 50)    
Moisture  
Dew Point 62 °F    
Average Humidity 80    
Maximum Humidity 94    
Minimum Humidity 60    
Precipitation  
Precipitation 0.00 in - - ()
Sea Level Pressure  
Sea Level Pressure 29.93 in    
Wind  
Wind Speed 5 mph ()    
Max Wind Speed 18 mph    
Max Gust Speed -    
Visibility 5.4 miles    
Events Rain    
Averages and records for this station are not official NWS values.
T = Trace of Precipitation, MM = Missing Value Source: Averaged Metar Reports

Daily Weather History Graph

Daily Weather History Graph

Search for Another Location

Airport:

Trip Planner

Search our weather history database for the weather conditions in past years. The results will help you decide how hot, cold, wet, or windy it might be!

Date:

Astronomy

Jun. 19, 2013 Rise Set
Actual Time 5:21 AM CEST 10:05 PM CEST
Civil Twilight 4:33 AM CEST 10:54 PM CEST
Nautical Twilight 3:15 AM CEST 12:12 AM CEST
Astronomical Twilight 2:15 AM CEST Sun does not rise
Moon 5:16 PM CEST (6/19) 2:25 AM CEST (6/19)
Length of Visible Light 18h 20m
Length of Day
16h 43m
Waxing Gibbous, 78% of the Moon is Illuminated
Jun 19
Waxing Gibbous
Jun 23
Full
Jun 30
Last Quarter
Jul 8
New
Jul 16
First Quarter

Hourly Weather History & Observations

Time (CEST) Temp. Dew Point Humidity Pressure Visibility Wind Dir Wind Speed Gust Speed Precip Events Conditions
12:25 AM 66.2 °F 60.8 °F 83% 29.95 in 6.2 mi NNW 4.6 mph - N/A   Unknown
12:55 AM 64.4 °F 60.8 °F 88% 29.95 in 6.2 mi NNW 3.5 mph - N/A   Unknown
1:25 AM 64.4 °F 60.8 °F 88% 29.95 in 5.6 mi Variable 2.3 mph - N/A   Unknown
1:55 AM 64.4 °F 60.8 °F 88% 29.95 in 3.7 mi NW 3.5 mph - N/A   Unknown
2:00 AM 64 °F 62 °F 89% 29.96 in 4 mi NNW 4.5 mph - -   Mist
2:25 AM 64.4 °F 60.8 °F 88% 29.95 in 3.7 mi NW 3.5 mph - N/A   Unknown
2:55 AM 64.4 °F 60.8 °F 88% 29.92 in 3.7 mi NNE 2.3 mph - N/A   Unknown
3:25 AM 64.4 °F 60.8 °F 88% 29.92 in 4.3 mi Variable 2.3 mph - N/A   Unknown
3:55 AM 66.2 °F 60.8 °F 83% 29.92 in 4.3 mi Variable 1.2 mph - N/A   Unknown
4:25 AM 64.4 °F 60.8 °F 88% 29.92 in 3.7 mi WNW 3.5 mph - N/A   Unknown
4:55 AM 64.4 °F 60.8 °F 88% 29.92 in 3.7 mi Variable 2.3 mph - N/A   Unknown
5:00 AM 65 °F 61 °F 84% 29.92 in 4 mi NNW 2.2 mph - -   Mist
5:25 AM 64.4 °F 60.8 °F 88% 29.89 in 4.3 mi NE 3.5 mph - N/A   Unknown
5:55 AM 64.4 °F 60.8 °F 88% 29.89 in 4.3 mi North 3.5 mph - N/A   Unknown
6:25 AM 64.4 °F 60.8 °F 88% 29.89 in 4.3 mi Variable 2.3 mph - N/A   Unknown
6:55 AM 66.2 °F 62.6 °F 88% 29.89 in 3.7 mi Variable 2.3 mph - N/A   Unknown
7:25 AM 66.2 °F 62.6 °F 88% 29.89 in 3.7 mi WNW 4.6 mph - N/A   Unknown
7:55 AM 68.0 °F 62.6 °F 83% 29.89 in 5.0 mi Variable 2.3 mph - N/A   Unknown
8:00 AM 67 °F 63 °F 81% 29.92 in 4 mi NNW 4.5 mph - -   Mist
8:25 AM 66.2 °F 62.6 °F 88% 29.92 in 3.7 mi NNE 3.5 mph - N/A   Unknown
8:55 AM 68.0 °F 62.6 °F 83% 29.92 in 4.3 mi West 3.5 mph - N/A   Unknown
9:25 AM 68.0 °F 62.6 °F 83% 29.95 in - West 4.6 mph - N/A Rain Light Rain
9:55 AM 68.0 °F 64.4 °F 88% 29.95 in - West 5.8 mph - N/A   Drizzle
10:25 AM 69.8 °F 64.4 °F 83% 29.95 in - NW 8.1 mph - N/A   Mist
10:55 AM 68.0 °F 62.6 °F 83% 29.89 in 3.1 mi NNW 18.4 mph - N/A   Mist
11:00 AM 68 °F 62 °F 77% 29.91 in 3 mi NNW 15.7 mph - -   Mist
11:25 AM 68.0 °F 60.8 °F 78% 29.89 in 4.3 mi NNW 15.0 mph - N/A   Drizzle
11:55 AM 69.8 °F 62.6 °F 78% 29.89 in 6.2 mi NNW 11.5 mph - N/A   Unknown
12:25 PM 68.0 °F 62.6 °F 83% 29.92 in 6.2 mi NNW 11.5 mph - N/A Rain Light Rain
12:55 PM 68.0 °F 60.8 °F 78% 29.95 in 6.2 mi North 9.2 mph - N/A   Unknown
1:25 PM 71.6 °F 60.8 °F 69% 29.95 in 6.2 mi NNE 8.1 mph - N/A   Unknown
1:55 PM 73.4 °F 62.6 °F 69% 29.95 in 6.2 mi NNE 11.5 mph - N/A   Unknown
2:00 PM 74 °F 63 °F 60% 29.94 in 9 mi NNE 11.2 mph - -   Partly Cloudy
2:25 PM 75.2 °F 62.6 °F 65% 29.92 in 6.2 mi NNE 8.1 mph - N/A   Unknown
2:55 PM 75.2 °F 64.4 °F 69% 29.92 in 6.2 mi North 8.1 mph - N/A   Unknown
3:25 PM 73.4 °F 62.6 °F 69% 29.92 in 6.2 mi North 9.2 mph - N/A   Unknown
3:55 PM 75.2 °F 64.4 °F 69% 29.92 in 6.2 mi NNE 8.1 mph - N/A   Unknown
4:25 PM 75.2 °F 62.6 °F 65% 29.95 in 6.2 mi NE 9.2 mph - N/A   Unknown
4:55 PM 75.2 °F 64.4 °F 69% 29.95 in 6.2 mi NNE 6.9 mph - N/A   Unknown
5:00 PM 75 °F 64 °F 62% 29.96 in 9 mi ENE 8.9 mph - -   Mostly Cloudy
5:25 PM 75.2 °F 64.4 °F 69% 29.92 in 6.2 mi NE 6.9 mph - N/A Rain Light Rain
5:55 PM 75.2 °F 64.4 °F 69% 29.92 in 6.2 mi ENE 8.1 mph - N/A   Unknown
6:25 PM 73.4 °F 64.4 °F 73% 29.86 in 6.2 mi ENE 12.7 mph - N/A   Unknown
6:55 PM 75.2 °F 64.4 °F 69% 29.89 in 6.2 mi NNW 5.8 mph - N/A   Unknown
7:25 PM 75.2 °F 64.4 °F 69% 29.89 in 6.2 mi North 5.8 mph - N/A   Unknown
7:55 PM 75.2 °F 64.4 °F 69% 29.89 in 6.2 mi North 4.6 mph - N/A   Unknown
8:00 PM 74 °F 65 °F 65% 29.92 in 14 mi NNW 6.7 mph - -   Partly Cloudy
8:25 PM 73.4 °F 64.4 °F 73% 29.92 in 6.2 mi NNW 5.8 mph - N/A   Unknown
8:55 PM 69.8 °F 62.6 °F 78% 29.92 in 6.2 mi NNW 8.1 mph - N/A   Unknown
9:25 PM 66.2 °F 60.8 °F 83% 29.95 in 6.2 mi NNW 9.2 mph - N/A   Unknown
9:55 PM 64.4 °F 60.8 °F 88% 29.95 in 6.2 mi North 5.8 mph - N/A   Unknown
10:25 PM 64.4 °F 59.0 °F 83% 29.95 in 6.2 mi North 5.8 mph - N/A   Unknown
10:55 PM 62.6 °F 59.0 °F 88% 29.95 in 5.6 mi NW 4.6 mph - N/A   Unknown
11:00 PM 63 °F 60 °F 85% 29.98 in 5 mi 2.2 mph - -   Mist
11:25 PM 62.6 °F 59.0 °F 88% 29.98 in 5.0 mi Variable 2.3 mph - N/A   Unknown
11:55 PM 60.8 °F 59.0 °F 94% 29.98 in 3.7 mi WNW 4.6 mph - N/A   Unknown